{"data":{"norad_id":63820,"intl_designator":"2025-092S","name":"STARLINK-33794","alt_names":[],"object_type":"PAYLOAD","status":"ACTIVE","operator":null,"country":"US","launch_date":"2025-05-04","launch_site_code":"AFETR","launch_vehicle":null,"mission":null,"orbit_class":"UNKNOWN","rcs_meters":null,"size_class":null,"mass_kg":null,"dimensions":null,"purposes":["comms"],"wikipedia_slug":null,"has_3d_model":false,"image_url":null,"decayed_at":null,"tle_current":{"epoch":"2026-09-19T01:04:30.999936Z","epoch_age_seconds":275632,"freshness":"STALE","line1":"1 63820U 25092S   26262.04480324  .00011684  00000+0  43331-3 0  9996","line2":"2 63820  43.0043 160.7642 0001735 253.0051 107.0611 15.27588513 78188","mean_motion":15.27588513,"eccentricity":0.0001735,"inclination_deg":43.0043,"raan_deg":160.7642,"arg_perigee_deg":253.0051,"mean_anomaly_deg":107.0611,"bstar":0.00043331,"rev_number":7818,"period_min":94.266223380537,"perigee_km":481.8331938085,"apogee_km":484.2140165385,"semimajor_km":6861.1606051735,"source":"CELESTRAK","updated_at":"2026-09-21T09:00:35.107074Z"}}}